TimeCDT,TemperatureF,Dew PointF,Humidity,Sea Level PressureIn,VisibilityMPH,Wind Direction,Wind SpeedMPH,Gust SpeedMPH,PrecipitationIn,Events,Conditions,WindDirDegrees,DateUTC
12:51 AM,55.9,44.1,64,29.79,10.0,NW,3.5,-,N/A,,Scattered Clouds,310,2012-10-02 05:51:00
2:51 AM,53.1,46.0,77,29.78,10.0,NW,5.8,-,N/A,,Scattered Clouds,310,2012-10-02 07:51:00
3:51 AM,53.1,45.0,74,29.79,10.0,NW,8.1,-,N/A,,Scattered Clouds,320,2012-10-02 08:51:00
4:51 AM,52.0,45.0,77,29.80,10.0,NW,8.1,-,N/A,,Partly Cloudy,310,2012-10-02 09:51:00
5:51 AM,50.0,44.1,80,29.82,10.0,Calm,Calm,-,N/A,,Partly Cloudy,0,2012-10-02 10:51:00
6:51 AM,50.0,44.6,82,29.84,10.0,Calm,Calm,-,N/A,,Scattered Clouds,0,2012-10-02 11:51:00
7:51 AM,52.0,46.0,80,29.85,10.0,WNW,5.8,-,N/A,,Scattered Clouds,300,2012-10-02 12:51:00
8:51 AM,55.9,46.9,72,29.85,10.0,NW,10.4,-,N/A,,Scattered Clouds,320,2012-10-02 13:51:00
9:51 AM,60.1,48.9,67,29.86,10.0,North,8.1,-,N/A,,Scattered Clouds,350,2012-10-02 14:51:00
10:51 AM,66.2,51.8,60,29.86,10.0,NNW,13.8,18.4,N/A,,Scattered Clouds,330,2012-10-02 15:51:00
11:51 AM,68.0,48.9,50,29.85,10.0,NNW,15.0,20.7,N/A,,Mostly Cloudy,340,2012-10-02 16:51:00
12:51 PM,69.1,48.9,49,29.84,10.0,North,12.7,18.4,N/A,,Mostly Cloudy,360,2012-10-02 17:51:00
1:51 PM,71.1,48.9,45,29.82,10.0,NW,12.7,-,N/A,,Mostly Cloudy,310,2012-10-02 18:51:00
2:51 PM,72.0,48.9,44,29.82,10.0,WNW,9.2,-,N/A,,Mostly Cloudy,300,2012-10-02 19:51:00
3:51 PM,70.0,48.9,47,29.82,10.0,Calm,Calm,-,N/A,,Mostly Cloudy,0,2012-10-02 20:51:00
4:51 PM,69.1,48.9,49,29.83,10.0,WNW,8.1,-,N/A,,Mostly Cloudy,300,2012-10-02 21:51:00
5:51 PM,68.0,48.9,50,29.84,10.0,WNW,5.8,-,N/A,,Mostly Cloudy,300,2012-10-02 22:51:00
6:51 PM,66.9,48.0,51,29.85,10.0,WNW,5.8,-,0.00,,Mostly Cloudy,290,2012-10-02 23:51:00
7:51 PM,64.0,52.0,65,29.88,10.0,South,5.8,-,0.00,,Overcast,170,2012-10-03 00:51:00
8:51 PM,64.0,51.1,63,29.88,10.0,WSW,3.5,-,N/A,,Overcast,240,2012-10-03 01:51:00
9:51 PM,64.0,52.0,65,29.88,10.0,West,5.8,-,N/A,,Overcast,260,2012-10-03 02:51:00
10:51 PM,64.0,52.0,65,29.89,10.0,Calm,Calm,-,N/A,,Mostly Cloudy,0,2012-10-03 03:51:00
11:51 PM,63.0,53.1,70,29.88,10.0,Calm,Calm,-,N/A,,Overcast,0,2012-10-03 04:51:00